Location: ?
(35.3544°N, 139.4507°E)
Time: 17:16:23
(UTC+00:00)

Meteor 1-15 Rocket - Pass Details

Date: 03 August 2024
Orbit: 839 x 906 km, 81.2° (Epoch: 11 September)

Event Time Altitude Azimuth Distance (km) Brightness Sun altitude
Exits shadow 18:26:54 12° 187° (S) 2,304 6.1 -16.2°
Maximum altitude 18:32:05 89° 275° (W) 864 4.2 -15.4°
Drops below altitude 10° 18:37:49 10° 8° (N) 2,523 7.3 -14.4°
Sets 18:40:17 0° 9° (N) 3,475 8.1 -14.0°
